This is the latest recevied weather packets stored in our database for station/object VA7IM-13. If no packets are shown the sender has not sent any weather packets the latest 1 day(s).
| Time | Temp. | Humidity | Pressure | Rain* | Wind** | Luminosity | Snow |
|---|---|---|---|---|---|---|---|
| 1778014621 | - | - | - | 0 mm | 1.79 m/s, 158° | - | - |
| 1778014318 | 18.89° C | - | - | 0 mm | 3.13 m/s, 135° | - | - |
| 1778014018 | - | - | - | 0 mm | 2.68 m/s, 45° | - | - |
| 1778013717 | 20° C | - | - | 0 mm | 2.68 m/s, 68° | - | - |
| 1778013419 | 18.89° C | - | - | 0 mm | 3.58 m/s, 225° | - | - |
| 1778013118 | 19.44° C | - | - | 0 mm | 2.68 m/s, 90° | - | - |
| 1778012817 | 18.89° C | - | - | 0 mm | 3.58 m/s, 90° | - | - |
| 1778012219 | 18.89° C | - | - | 0 mm | 3.13 m/s, 225° | - | - |
| 1778011319 | 18.89° C | - | - | 0 mm | 2.68 m/s, 113° | - | - |
| 1778011019 | 18.89° C | - | - | 0 mm | 2.68 m/s, 45° | - | - |
| 1778010417 | 18.89° C | - | - | 0 mm | 2.24 m/s, 203° | - | - |
| 1778010118 | 18.33° C | - | - | 0 mm | 2.68 m/s, 248° | - | - |
| 1778009818 | 18.33° C | - | - | 0 mm | 3.13 m/s, 203° | - | - |
| 1778009518 | 18.89° C | - | - | 0 mm | 2.68 m/s, 158° | - | - |
| 1778009217 | 17.78° C | - | - | 0 mm | 2.68 m/s, 90° | - | - |
| 1778008918 | 18.33° C | - | - | 0 mm | 3.58 m/s, 158° | - | - |
| 1778008618 | 18.33° C | - | - | 0 mm | 2.24 m/s, 203° | - | - |
| 1778008318 | 18.89° C | - | - | 0 mm | 3.13 m/s, 203° | - | - |
| 1778008017 | 17.78° C | - | - | 0 mm | 3.58 m/s, 113° | - | - |
| 1778007718 | - | - | - | 0 mm | 3.13 m/s, 158° | - | - |
| 1778007419 | 17.78° C | - | - | 0 mm | 2.68 m/s, 180° | - | - |
| 1778007118 | 17.78° C | - | - | 0 mm | 3.58 m/s, 135° | - | - |
| 1778006817 | 17.22° C | - | - | 0 mm | 3.58 m/s, 135° | - | - |
| 1778006518 | - | - | - | 0 mm | 2.68 m/s, 180° | - | - |
| 1778006219 | 17.22° C | - | - | 0 mm | 3.13 m/s, 158° | - | - |
* Rain since midnight (hover to see other rain measurements)
** Current wind speed in m/s (hover to see current wind gust speed)